SCP
0 0 0 0 0 0 0 0 0 0 0 0 0 0 0 0 0 0 0 0 0 -0 -0 0 0 0 0 0 0 0 1 0 0 0 0 0 0 0 0 0 1 1 0 0 0 0 0 0 0
0 0 0 0 0 0 0 0 0 0 0 0 0 0 0 0 0 0 0 0 0 -0 -0 -0 0 0 0 0 0 0 0 1 0 0 0 0 0 0 0 0 1 0 0 0 0 0 0 0 0
0 0 0 0 0 0 0 0 0 0 0 0 0 0 0 0 0 0 0 0 0 0 -0 0 0 0 0 0 0 0 0 0 0 1 0 0 0 0 0 0 1 1 0 0 0 0 0 0 0
0 0 0 0 0 0 0 0 0 0 0 0 0 0 0 0 0 0 0 0 0 0 -0 0 0 0 0 0 0 0 0 0 0 0 1 0 0 0 1 1 1 1 0 0 0 1 0 0 0
0 0 0 0 0 0 0 0 0 0 0 0 0 0 0 0 0 0 0 0 0 0 0 -0 0 0 0 0 0 0 0 0 0 0 0 1 0 1 0 0 0 1 1 1 0 0 0 0 0
0 0 0 0 0 0 0 0 0 0 0 0 0 0 0 0 0 0 0 0 0 0 0 0 0 0 0 0 0 0 0 0 0 0 0 0 0 0 0 0 0 0 0 0 0 0 0 0 0
0 0 0 0 0 0 0 0 0 0 0 0 0 0 0 0 0 0 0 0 0 0 0 0 0 0 0 0 0 0 0 0 0 0 0 0 0 0 0 0 0 0 0 0 0 0 0 0 0
0 0 0 0 0 0 0 0 0 0 0 0 0 0 0 0 0 0 0 0 0 0 0 0 0 0 0 0 0 0 0 0 0 0 0 0 0 0 0 0 0 0 0 0 0 0 0 0 0
0 0 0 0 0 0 0 0 0 0 0 0 0 0 0 0 0 0 0 0 0 0 0 0 0 0 0 0 0 0 0 0 0 0 0 0 0 0 0 0 0 0 0 0 0 0 0 0 0
0 0 0 0 0 0 0 0 0 0 0 0 0 0 0 0 0 0 0 0 0 0 0 0 0 0 0 0 0 0 0 0 0 0 0 0 0 0 0 0 0 0 0 0 0 0 0 0 0
0 0 0 0 0 0 0 0 0 0 0 0 0 0 0 0 0 0 0 0 0 0 0 0 0 0 0 0 0 0 0 0 0 0 0 0 0 0 0 0 0 0 0 0 0 0 0 0 0
0 0 0 0 0 0 0 0 0 0 0 0 0 0 0 0 0 0 0 0 0 0 0 0 0 0 0 0 0 0 0 0 0 0 0 0 0 0 0 0 0 0 0 0 0 1 0 0 0
0 0 0 0 0 0 0 0 0 0 0 0 0 0 0 0 0 0 0 0 0 0 0 0 0 -0 0 0 0 0 0 0 0 0 0 0 0 0 0 0 0 0 0 0 0 0 0 0 0
0 0 0 0 0 0 0 0 0 0 0 0 0 0 0 0 0 0 0 0 0 0 0 0 0 0 0 0 0 0 0 0 0 0 0 0 0 0 0 0 0 0 0 0 0 0 0 0 0
0 0 0 0 0 0 0 0 0 0 0 0 0 0 0 0 0 0 0 0 0 0 0 0 0 0 0 0 0 0 0 0 0 0 0 0 0 0 0 0 0 0 0 0 0 0 0 0 0
0 0 0 0 0 0 0 0 0 0 0 0 0 0 0 0 0 0 0 0 0 0 0 0 0 0 0 0 0 0 0 0 0 0 0 0 0 0 0 0 0 0 0 0 0 0 0 0 0
0 0 0 0 0 0 0 0 0 0 0 0 0 0 0 0 0 0 0 0 0 0 0 0 0 0 0 0 0 0 0 0 0 0 0 0 0 0 0 0 0 0 0 0 0 0 0 0 0
0 0 0 0 0 0 0 0 0 0 0 0 0 0 0 0 0 0 0 0 0 0 0 0 0 0 0 0 0 0 0 0 0 0 0 0 0 0 0 0 0 0 0 0 0 0 0 0 0
0 0 0 0 0 0 0 0 0 0 0 0 0 0 0 0 0 0 0 0 0 0 0 0 0 0 0 0 0 0 0 0 0 0 0 0 0 0 0 0 0 0 0 0 0 0 0 0 0
0 0 0 0 0 0 0 0 0 0 0 0 0 0 0 0 0 0 0 0 0 0 0 0 0 0 0 0 0 0 0 0 0 0 0 0 0 0 0 0 0 0 0 0 0 0 0 0 0
0 0 0 0 0 0 0 0 0 0 0 0 0 0 0 0 0 0 0 -0 -0 0 0 0 0 0 0 0 0 0 0 0 0 0 0 0 0 0 0 0 0 0 0 0 0 0 0 0 0
0 0 0 0 0 0 0 0 0 0 0 0 0 0 0 0 0 0 0 -0 0 0 0 0 0 0 0 0 0 0 0 0 0 0 0 0 0 0 0 0 0 0 0 0 0 0 0 0 0
0 0 0 0 0 0 0 0 0 0 0 0 0 0 0 0 0 0 0 0 0 0 0 0 0 0 0 0 0 0 0 0 0 0 0 0 0 0 0 0 0 0 0 0 0 0 0 0 0
0 0 0 0 0 0 0 0 0 0 0 0 0 0 0 0 0 0 0 0 0 0 0 0 0 0 0 0 0 0 0 0 0 0 0 0 0 0 0 0 0 0 0 0 -0 0 0 0 0
0 0 0 0 0 0 0 0 0 0 0 0 0 0 0 0 0 0 0 0 0 0 0 0 0 0 0 0 0 0 0 0 0 0 0 0 0 0 0 0 0 0 0 0 0 0 0 0 0
0 0 0 0 0 0 0 0 0 0 0 0 0 0 0 0 0 0 0 0 0 0 0 0 0 0 0 0 0 0 0 0 0 0 0 0 0 0 0 0 0 0 0 0 0 0 0 0 0
0 0 0 0 0 0 0 0 0 0 0 0 0 0 0 0 0 0 0 0 0 0 0 0 0 0 -0 -0 0 0 0 0 0 0 0 0 0 0 0 0 0 0 0 0 0 0 0 0 0
0 0 0 0 0 0 0 0 0 0 0 0 0 0 0 0 0 0 0 0 0 0 0 0 0 0 -0 0 -0 0 0 0 0 0 0 0 0 0 0 0 0 0 0 0 0 0 0 0 0
0 0 0 0 0 0 0 0 0 0 0 0 0 0 0 0 0 0 0 0 0 0 0 0 0 0 -0 0 0 0 0 0 0 0 0 0 0 0 0 0 0 0 0 0 0 0 0 0 0
0 0 0 0 0 0 0 0 0 0 0 0 0 0 0 0 0 0 0 0 0 0 0 0 0 0 0 0 0 0 0 0 0 0 0 0 0 0 0 0 0 0 0 0 0 0 0 0 0
Wind_Speed_500mb
1 11 19 8 7 8 6 8 5 7 8 9 14 11 3 6 5 5 19 13 21 28 32 27 24 15 12 14 17 15 13 12 17 20 21 18 17 23 29 31 33 39 40 42 41 39 36 35 34
3 18 8 2 8 5 7 7 13 8 9 15 9 1 5 6 17 16 9 12 17 27 33 28 23 22 14 15 19 17 19 17 18 21 23 24 21 25 30 33 35 36 39 41 40 39 35 33 34
12 9 4 6 6 8 10 4 12 14 15 10 5 9 5 7 12 10 6 6 8 20 30 31 26 22 20 17 19 26 20 23 22 24 28 28 29 29 33 36 40 39 40 41 42 41 35 29 31
11 4 0 7 10 9 11 8 10 6 13 9 8 6 15 6 9 5 4 9 14 21 32 38 34 29 24 19 20 23 26 27 28 29 30 33 35 34 34 39 44 45 44 43 43 43 36 32 29
7 2 5 2 10 2 8 16 16 7 5 19 6 2 18 7 7 14 17 16 20 27 36 42 41 36 31 27 22 21 27 29 31 35 33 37 40 40 39 42 46 51 51 50 49 44 39 32 29
2 3 5 6 9 9 8 12 11 5 11 6 6 3 11 11 14 16 17 17 17 24 35 40 39 37 32 31 31 27 24 29 37 40 38 40 45 47 47 46 47 52 55 52 50 46 43 34 30
5 7 8 6 6 4 3 6 9 6 6 4 6 1 10 13 13 18 17 24 33 38 41 42 47 42 38 35 35 35 32 30 30 35 39 44 48 52 54 53 51 51 56 55 54 50 45 38 32
3 6 6 9 5 7 3 4 12 8 4 9 5 6 6 11 19 28 38 42 42 44 46 48 52 49 49 40 38 37 38 37 33 32 38 41 48 49 56 60 59 55 55 57 56 53 49 43 34
1 6 5 5 5 6 7 4 10 5 12 12 11 14 17 2 18 30 39 46 49 49 42 42 47 47 47 48 40 40 39 39 38 33 35 35 44 50 54 57 62 62 59 61 60 58 55 49 39
6 6 5 1 3 4 4 5 9 5 11 12 25 14 10 16 27 32 35 39 45 48 49 49 50 50 50 48 49 42 39 42 40 37 34 37 36 47 58 59 61 63 65 65 62 61 66 63 55
2 8 2 4 5 8 7 15 4 6 10 20 14 26 30 30 32 31 34 36 40 45 49 49 51 52 52 50 50 52 46 40 41 36 33 34 35 42 48 60 62 64 67 70 65 62 68 76 68
2 13 4 1 5 5 4 11 12 28 30 33 22 18 23 29 26 26 31 36 41 46 52 56 57 55 54 57 51 49 54 49 42 38 34 32 31 32 40 46 55 61 67 67 67 66 71 79 79
6 5 7 9 16 15 19 22 15 41 39 38 27 27 25 22 26 32 37 39 45 50 53 62 64 65 52 56 59 51 48 54 51 47 39 35 32 27 32 33 33 67 59 60 66 65 67 77 59
5 15 29 22 20 13 10 12 1 10 5 22 26 28 27 25 31 38 44 48 51 51 57 61 63 64 61 52 56 59 51 50 54 56 48 42 40 31 25 31 38 32 55 57 58 56 65 71 55
7 11 13 17 15 7 4 16 15 29 34 33 24 20 18 24 26 32 45 49 52 57 66 63 57 58 62 54 52 56 57 52 53 55 58 50 46 45 33 26 27 25 42 47 55 54 51 36 42
4 2 8 3 18 5 9 17 8 22 28 30 29 26 24 24 24 29 36 47 54 63 60 58 52 53 58 54 48 52 56 52 54 51 56 58 50 47 47 32 28 30 31 33 48 35 52 47 36
3 7 8 6 19 9 12 15 12 32 34 36 38 35 32 27 24 28 39 49 57 58 58 56 51 47 54 51 43 45 52 49 45 49 54 58 53 46 47 46 34 30 29 32 30 42 44 54 47
6 7 8 9 5 10 18 39 13 30 46 46 47 39 32 28 24 29 40 49 51 52 54 56 50 45 50 46 40 42 45 45 39 47 50 49 51 52 50 48 34 24 38 36 40 46 48 38 47
6 5 12 12 14 9 18 28 31 27 37 33 32 39 30 20 19 29 40 46 46 50 51 51 49 44 44 44 36 36 42 46 37 42 45 46 45 47 47 59 50 38 33 39 35 39 42 45 54
3 5 14 12 6 8 17 42 41 18 16 19 30 26 22 20 26 32 39 44 43 50 52 47 43 42 42 39 36 35 46 48 37 41 42 48 37 40 51 45 53 51 34 29 35 31 38 40 49
7 10 7 10 13 6 19 15 9 4 11 11 15 20 20 16 23 32 43 42 45 49 50 43 42 42 40 39 36 39 43 45 35 26 31 41 40 46 49 48 58 59 49 40 38 38 44 45 59
6 4 2 7 11 5 10 11 11 7 9 10 22 24 14 11 25 40 39 39 42 47 48 42 41 41 39 37 37 38 41 42 32 29 20 26 44 50 53 54 49 60 71 53 48 48 45 45 58
13 8 7 1 5 8 6 6 15 6 11 15 17 18 4 25 43 32 27 32 42 47 46 45 43 41 41 39 36 37 40 40 35 37 23 22 45 44 45 48 44 41 62 79 65 54 52 47 55
3 7 5 5 6 3 10 8 12 9 12 4 8 5 27 38 24 15 27 38 42 40 43 42 39 39 41 38 35 33 37 37 33 37 36 21 39 37 38 42 45 42 49 57 60 51 56 59 51
11 8 7 9 4 10 7 3 23 12 13 9 5 19 25 24 11 24 35 37 38 41 41 35 33 35 37 35 31 31 34 32 29 33 44 38 42 40 35 35 34 34 45 49 51 56 57 47 54
4 10 9 10 5 10 5 12 12 9 1 7 16 18 19 12 21 29 32 35 39 39 34 31 31 34 34 31 26 26 28 28 27 30 42 47 45 37 29 28 30 31 41 42 47 49 59 58 49
3 3 4 8 3 1 8 14 10 5 10 15 17 19 20 17 29 32 31 34 35 32 29 28 30 32 28 25 20 18 20 22 22 25 28 30 27 25 23 24 23 24 30 31 38 45 53 65 52
2 7 5 6 5 10 12 12 11 8 12 10 13 20 15 24 30 27 28 31 27 25 26 26 27 27 23 19 15 11 11 13 12 19 20 17 17 20 19 20 19 16 21 25 28 30 33 39 49
2 2 2 6 8 9 7 14 11 12 11 14 13 19 20 27 28 24 30 25 23 23 24 24 22 21 18 13 8 4 2 5 8 14 14 14 11 11 14 17 19 25 25 27 27 28 29 34 35
2 11 9 8 10 6 6 15 6 11 10 14 24 15 17 19 23 28 23 21 21 22 22 23 21 18 16 12 7 4 5 7 9 11 12 12 13 18 20 23 27 31 32 30 32 31 31 30 25
Wind_Direction_500mb
261 144 132 109 73 73 250 261 100 95 58 71 70 66 169 18 7 161 121 32 14 346 338 353 3 354 329 306 306 285 261 256 264 255 247 239 227 211 196 194 190 188 193 191 192 188 188 187 189
143 134 105 75 99 121 264 323 91 61 100 80 65 334 30 89 68 107 182 2 12 351 332 331 346 347 324 310 285 293 269 254 252 252 243 238 227 217 207 195 193 191 190 189 188 188 188 192 199
142 115 61 111 159 183 167 129 128 126 105 103 85 76 32 14 77 104 59 349 17 354 325 320 324 335 331 312 293 277 284 262 248 241 243 236 232 219 213 205 200 198 195 193 191 194 195 198 207
151 116 286 102 229 263 127 152 113 71 95 128 142 73 92 70 171 162 266 329 337 328 316 316 327 324 324 320 304 291 280 277 261 247 233 234 232 225 216 213 210 206 204 203 203 205 210 209 217
104 127 66 269 254 172 73 107 84 74 33 91 135 170 114 162 212 236 276 310 327 318 306 306 315 315 316 315 307 288 285 271 263 264 236 232 230 228 224 220 218 214 216 216 220 217 212 217 218
16 127 82 212 254 123 74 79 110 78 32 61 68 51 148 181 237 269 288 313 310 307 301 306 305 305 306 307 309 301 283 285 272 257 258 241 234 226 225 225 222 220 220 222 220 218 216 222 215
123 94 219 229 219 104 84 52 72 93 23 56 130 342 162 198 251 288 306 305 305 302 302 306 304 301 296 297 296 298 296 281 280 265 262 254 234 232 228 225 226 224 224 224 223 224 217 219 217
323 108 277 243 186 178 167 82 132 147 185 140 208 222 157 229 285 301 297 296 297 300 302 297 296 292 294 291 286 285 289 293 285 275 261 258 252 232 231 230 225 224 226 223 226 227 222 221 217
301 61 255 292 31 185 164 113 175 175 203 222 220 261 137 179 286 283 291 298 304 308 308 305 303 302 295 291 289 277 276 282 287 287 272 259 252 245 234 233 232 227 226 228 224 222 223 224 219
106 134 226 181 56 61 339 65 338 302 244 239 257 195 229 287 315 320 322 316 311 308 311 308 307 308 303 296 288 283 272 267 276 281 280 261 252 243 239 235 234 232 229 229 228 227 219 216 211
334 198 184 40 77 24 332 320 315 293 274 240 218 244 266 300 321 326 317 316 315 309 308 310 309 309 309 304 295 285 279 266 258 265 275 273 251 245 241 238 236 235 231 228 229 229 225 216 205
319 271 199 236 52 352 303 306 300 253 256 289 272 267 283 299 318 321 317 315 312 311 310 310 308 304 301 301 296 289 280 274 260 253 255 266 259 252 243 244 234 234 233 233 232 231 229 221 224
189 311 328 289 280 269 266 254 253 268 267 274 266 273 284 303 305 305 308 306 304 308 313 313 311 309 302 292 291 289 281 272 266 255 245 248 257 244 253 244 246 233 231 229 227 227 231 225 215
277 298 287 285 254 242 248 266 207 241 196 225 248 262 285 289 288 293 299 302 304 307 314 313 307 307 303 297 289 287 284 275 264 257 250 240 243 254 237 241 247 225 229 229 226 222 223 226 187
290 313 304 230 215 224 29 286 228 253 244 238 236 263 264 248 265 281 289 296 302 303 308 308 305 301 298 297 288 281 278 272 266 258 253 244 236 244 248 228 235 248 208 213 210 187 175 184 179
297 232 328 259 141 174 116 276 227 185 190 209 228 233 228 246 264 275 281 291 298 302 307 307 304 300 298 296 285 277 273 270 265 257 253 246 237 239 242 235 224 221 214 202 197 187 196 195 181
288 259 241 313 196 145 196 262 203 209 213 224 229 223 237 241 244 261 281 296 304 306 309 309 307 300 298 297 291 276 273 272 260 257 249 245 237 235 237 235 220 215 218 201 208 194 169 172 178
200 268 295 268 260 214 244 255 251 234 229 236 241 217 221 223 242 272 293 307 311 310 311 310 307 302 298 299 295 285 282 273 260 254 247 240 232 236 231 225 216 212 215 199 205 219 205 200 191
139 216 248 277 280 284 248 274 275 251 262 254 205 201 214 221 263 291 306 319 317 311 313 312 308 309 303 300 299 290 290 276 258 246 245 238 230 229 233 232 234 213 224 210 207 209 218 209 208
159 275 276 282 61 346 292 291 288 283 258 227 209 191 207 245 273 299 317 323 316 316 317 314 311 309 304 306 298 283 279 277 270 244 240 228 225 234 229 228 230 231 212 211 217 207 215 208 217
229 209 246 247 338 288 320 305 318 334 94 113 170 211 239 274 298 311 322 325 320 319 324 321 317 311 307 302 300 274 273 279 280 253 248 222 217 216 222 221 222 230 216 218 223 211 224 206 226
292 65 17 334 36 290 68 283 292 213 232 235 239 238 239 306 322 328 330 325 321 322 320 318 317 315 308 303 298 289 278 273 269 242 245 220 214 215 219 224 220 216 229 226 226 219 220 224 222
227 10 298 202 126 35 337 60 273 179 258 246 243 223 324 338 331 337 330 314 312 315 313 312 313 311 312 302 295 288 276 266 259 245 261 200 208 212 220 227 229 221 217 220 234 227 221 222 234
13 19 51 73 94 336 233 137 273 207 213 210 115 81 339 335 337 320 303 308 312 316 319 316 311 311 312 303 294 281 273 267 257 251 251 218 216 226 223 230 228 223 220 226 229 233 230 227 228
60 60 333 354 323 226 192 213 255 245 223 199 254 318 324 336 319 309 312 316 320 323 323 321 318 314 315 309 295 279 268 260 250 240 240 241 226 233 239 230 229 233 227 228 228 225 227 231 232
162 147 151 250 270 277 236 237 253 231 290 273 281 313 329 317 309 307 313 320 320 322 323 322 321 319 317 313 299 281 266 251 237 236 234 237 236 238 236 235 231 222 229 224 221 221 224 226 230
243 89 150 91 97 315 242 279 290 309 299 289 284 319 322 300 304 305 315 320 323 327 328 325 322 321 319 317 308 287 262 244 226 228 234 233 235 235 235 239 232 216 215 219 219 217 216 221 227
111 164 60 13 356 304 286 283 243 285 276 280 292 309 289 293 300 313 319 323 328 330 331 332 328 329 325 325 321 294 256 232 216 227 232 236 242 237 231 226 219 223 216 209 206 211 218 217 222
71 95 50 121 138 186 296 270 222 208 211 247 279 290 284 303 314 320 324 328 334 333 341 341 338 339 336 339 344 319 248 200 204 225 225 222 214 249 241 215 213 217 204 199 192 188 189 197 212
165 179 152 125 260 231 154 272 218 212 211 233 287 282 304 309 316 321 332 338 341 348 354 358 357 359 359 2 17 70 128 143 180 194 187 180 216 213 205 199 195 193 182 184 184 181 181 182 191
Wind_Speed_850mb
1 11 19 8 7 8 6 8 5 7 8 9 14 11 3 6 5 5 19 13 21 28 32 27 24 15 12 14 17 15 13 12 17 20 21 18 17 23 29 31 33 39 40 42 41 39 36 35 34
3 18 8 2 8 5 7 7 13 8 9 15 9 1 5 6 17 16 9 12 17 27 33 28 23 22 14 15 19 17 19 17 18 21 23 24 21 25 30 33 35 36 39 41 40 39 35 33 34
12 9 4 6 6 8 10 4 12 14 15 10 5 9 5 7 12 10 6 6 8 20 30 31 26 22 20 17 19 26 20 23 22 24 28 28 29 29 33 36 40 39 40 41 42 41 35 29 31
11 4 0 7 10 9 11 8 10 6 13 9 8 6 15 6 9 5 4 9 14 21 32 38 34 29 24 19 20 23 26 27 28 29 30 33 35 34 34 39 44 45 44 43 43 43 36 32 29
7 2 5 2 10 2 8 16 16 7 5 19 6 2 18 7 7 14 17 16 20 27 36 42 41 36 31 27 22 21 27 29 31 35 33 37 40 40 39 42 46 51 51 50 49 44 39 32 29
2 3 5 6 9 9 8 12 11 5 11 6 6 3 11 11 14 16 17 17 17 24 35 40 39 37 32 31 31 27 24 29 37 40 38 40 45 47 47 46 47 52 55 52 50 46 43 34 30
5 7 8 6 6 4 3 6 9 6 6 4 6 1 10 13 13 18 17 24 33 38 41 42 47 42 38 35 35 35 32 30 30 35 39 44 48 52 54 53 51 51 56 55 54 50 45 38 32
3 6 6 9 5 7 3 4 12 8 4 9 5 6 6 11 19 28 38 42 42 44 46 48 52 49 49 40 38 37 38 37 33 32 38 41 48 49 56 60 59 55 55 57 56 53 49 43 34
1 6 5 5 5 6 7 4 10 5 12 12 11 14 17 2 18 30 39 46 49 49 42 42 47 47 47 48 40 40 39 39 38 33 35 35 44 50 54 57 62 62 59 61 60 58 55 49 39
6 6 5 1 3 4 4 5 9 5 11 12 25 14 10 16 27 32 35 39 45 48 49 49 50 50 50 48 49 42 39 42 40 37 34 37 36 47 58 59 61 63 65 65 62 61 66 63 55
2 8 2 4 5 8 7 15 4 6 10 20 14 26 30 30 32 31 34 36 40 45 49 49 51 52 52 50 50 52 46 40 41 36 33 34 35 42 48 60 62 64 67 70 65 62 68 76 68
2 13 4 1 5 5 4 11 12 28 30 33 22 18 23 29 26 26 31 36 41 46 52 56 57 55 54 57 51 49 54 49 42 38 34 32 31 32 40 46 55 61 67 67 67 66 71 79 79
6 5 7 9 16 15 19 22 15 41 39 38 27 27 25 22 26 32 37 39 45 50 53 62 64 65 52 56 59 51 48 54 51 47 39 35 32 27 32 33 33 67 59 60 66 65 67 77 59
5 15 29 22 20 13 10 12 1 10 5 22 26 28 27 25 31 38 44 48 51 51 57 61 63 64 61 52 56 59 51 50 54 56 48 42 40 31 25 31 38 32 55 57 58 56 65 71 55
7 11 13 17 15 7 4 16 15 29 34 33 24 20 18 24 26 32 45 49 52 57 66 63 57 58 62 54 52 56 57 52 53 55 58 50 46 45 33 26 27 25 42 47 55 54 51 36 42
4 2 8 3 18 5 9 17 8 22 28 30 29 26 24 24 24 29 36 47 54 63 60 58 52 53 58 54 48 52 56 52 54 51 56 58 50 47 47 32 28 30 31 33 48 35 52 47 36
3 7 8 6 19 9 12 15 12 32 34 36 38 35 32 27 24 28 39 49 57 58 58 56 51 47 54 51 43 45 52 49 45 49 54 58 53 46 47 46 34 30 29 32 30 42 44 54 47
6 7 8 9 5 10 18 39 13 30 46 46 47 39 32 28 24 29 40 49 51 52 54 56 50 45 50 46 40 42 45 45 39 47 50 49 51 52 50 48 34 24 38 36 40 46 48 38 47
6 5 12 12 14 9 18 28 31 27 37 33 32 39 30 20 19 29 40 46 46 50 51 51 49 44 44 44 36 36 42 46 37 42 45 46 45 47 47 59 50 38 33 39 35 39 42 45 54
3 5 14 12 6 8 17 42 41 18 16 19 30 26 22 20 26 32 39 44 43 50 52 47 43 42 42 39 36 35 46 48 37 41 42 48 37 40 51 45 53 51 34 29 35 31 38 40 49
7 10 7 10 13 6 19 15 9 4 11 11 15 20 20 16 23 32 43 42 45 49 50 43 42 42 40 39 36 39 43 45 35 26 31 41 40 46 49 48 58 59 49 40 38 38 44 45 59
6 4 2 7 11 5 10 11 11 7 9 10 22 24 14 11 25 40 39 39 42 47 48 42 41 41 39 37 37 38 41 42 32 29 20 26 44 50 53 54 49 60 71 53 48 48 45 45 58
13 8 7 1 5 8 6 6 15 6 11 15 17 18 4 25 43 32 27 32 42 47 46 45 43 41 41 39 36 37 40 40 35 37 23 22 45 44 45 48 44 41 62 79 65 54 52 47 55
3 7 5 5 6 3 10 8 12 9 12 4 8 5 27 38 24 15 27 38 42 40 43 42 39 39 41 38 35 33 37 37 33 37 36 21 39 37 38 42 45 42 49 57 60 51 56 59 51
11 8 7 9 4 10 7 3 23 12 13 9 5 19 25 24 11 24 35 37 38 41 41 35 33 35 37 35 31 31 34 32 29 33 44 38 42 40 35 35 34 34 45 49 51 56 57 47 54
4 10 9 10 5 10 5 12 12 9 1 7 16 18 19 12 21 29 32 35 39 39 34 31 31 34 34 31 26 26 28 28 27 30 42 47 45 37 29 28 30 31 41 42 47 49 59 58 49
3 3 4 8 3 1 8 14 10 5 10 15 17 19 20 17 29 32 31 34 35 32 29 28 30 32 28 25 20 18 20 22 22 25 28 30 27 25 23 24 23 24 30 31 38 45 53 65 52
2 7 5 6 5 10 12 12 11 8 12 10 13 20 15 24 30 27 28 31 27 25 26 26 27 27 23 19 15 11 11 13 12 19 20 17 17 20 19 20 19 16 21 25 28 30 33 39 49
2 2 2 6 8 9 7 14 11 12 11 14 13 19 20 27 28 24 30 25 23 23 24 24 22 21 18 13 8 4 2 5 8 14 14 14 11 11 14 17 19 25 25 27 27 28 29 34 35
2 11 9 8 10 6 6 15 6 11 10 14 24 15 17 19 23 28 23 21 21 22 22 23 21 18 16 12 7 4 5 7 9 11 12 12 13 18 20 23 27 31 32 30 32 31 31 30 25
Wind_Direction_850mb
261 144 132 109 73 73 250 261 100 95 58 71 70 66 169 18 7 161 121 32 14 346 338 353 3 354 329 306 306 285 261 256 264 255 247 239 227 211 196 194 190 188 193 191 192 188 188 187 189
143 134 105 75 99 121 264 323 91 61 100 80 65 334 30 89 68 107 182 2 12 351 332 331 346 347 324 310 285 293 269 254 252 252 243 238 227 217 207 195 193 191 190 189 188 188 188 192 199
142 115 61 111 159 183 167 129 128 126 105 103 85 76 32 14 77 104 59 349 17 354 325 320 324 335 331 312 293 277 284 262 248 241 243 236 232 219 213 205 200 198 195 193 191 194 195 198 207
151 116 286 102 229 263 127 152 113 71 95 128 142 73 92 70 171 162 266 329 337 328 316 316 327 324 324 320 304 291 280 277 261 247 233 234 232 225 216 213 210 206 204 203 203 205 210 209 217
104 127 66 269 254 172 73 107 84 74 33 91 135 170 114 162 212 236 276 310 327 318 306 306 315 315 316 315 307 288 285 271 263 264 236 232 230 228 224 220 218 214 216 216 220 217 212 217 218
16 127 82 212 254 123 74 79 110 78 32 61 68 51 148 181 237 269 288 313 310 307 301 306 305 305 306 307 309 301 283 285 272 257 258 241 234 226 225 225 222 220 220 222 220 218 216 222 215
123 94 219 229 219 104 84 52 72 93 23 56 130 342 162 198 251 288 306 305 305 302 302 306 304 301 296 297 296 298 296 281 280 265 262 254 234 232 228 225 226 224 224 224 223 224 217 219 217
323 108 277 243 186 178 167 82 132 147 185 140 208 222 157 229 285 301 297 296 297 300 302 297 296 292 294 291 286 285 289 293 285 275 261 258 252 232 231 230 225 224 226 223 226 227 222 221 217
301 61 255 292 31 185 164 113 175 175 203 222 220 261 137 179 286 283 291 298 304 308 308 305 303 302 295 291 289 277 276 282 287 287 272 259 252 245 234 233 232 227 226 228 224 222 223 224 219
106 134 226 181 56 61 339 65 338 302 244 239 257 195 229 287 315 320 322 316 311 308 311 308 307 308 303 296 288 283 272 267 276 281 280 261 252 243 239 235 234 232 229 229 228 227 219 216 211
334 198 184 40 77 24 332 320 315 293 274 240 218 244 266 300 321 326 317 316 315 309 308 310 309 309 309 304 295 285 279 266 258 265 275 273 251 245 241 238 236 235 231 228 229 229 225 216 205
319 271 199 236 52 352 303 306 300 253 256 289 272 267 283 299 318 321 317 315 312 311 310 310 308 304 301 301 296 289 280 274 260 253 255 266 259 252 243 244 234 234 233 233 232 231 229 221 224
189 311 328 289 280 269 266 254 253 268 267 274 266 273 284 303 305 305 308 306 304 308 313 313 311 309 302 292 291 289 281 272 266 255 245 248 257 244 253 244 246 233 231 229 227 227 231 225 215
277 298 287 285 254 242 248 266 207 241 196 225 248 262 285 289 288 293 299 302 304 307 314 313 307 307 303 297 289 287 284 275 264 257 250 240 243 254 237 241 247 225 229 229 226 222 223 226 187
290 313 304 230 215 224 29 286 228 253 244 238 236 263 264 248 265 281 289 296 302 303 308 308 305 301 298 297 288 281 278 272 266 258 253 244 236 244 248 228 235 248 208 213 210 187 175 184 179
297 232 328 259 141 174 116 276 227 185 190 209 228 233 228 246 264 275 281 291 298 302 307 307 304 300 298 296 285 277 273 270 265 257 253 246 237 239 242 235 224 221 214 202 197 187 196 195 181
288 259 241 313 196 145 196 262 203 209 213 224 229 223 237 241 244 261 281 296 304 306 309 309 307 300 298 297 291 276 273 272 260 257 249 245 237 235 237 235 220 215 218 201 208 194 169 172 178
200 268 295 268 260 214 244 255 251 234 229 236 241 217 221 223 242 272 293 307 311 310 311 310 307 302 298 299 295 285 282 273 260 254 247 240 232 236 231 225 216 212 215 199 205 219 205 200 191
139 216 248 277 280 284 248 274 275 251 262 254 205 201 214 221 263 291 306 319 317 311 313 312 308 309 303 300 299 290 290 276 258 246 245 238 230 229 233 232 234 213 224 210 207 209 218 209 208
159 275 276 282 61 346 292 291 288 283 258 227 209 191 207 245 273 299 317 323 316 316 317 314 311 309 304 306 298 283 279 277 270 244 240 228 225 234 229 228 230 231 212 211 217 207 215 208 217
229 209 246 247 338 288 320 305 318 334 94 113 170 211 239 274 298 311 322 325 320 319 324 321 317 311 307 302 300 274 273 279 280 253 248 222 217 216 222 221 222 230 216 218 223 211 224 206 226
292 65 17 334 36 290 68 283 292 213 232 235 239 238 239 306 322 328 330 325 321 322 320 318 317 315 308 303 298 289 278 273 269 242 245 220 214 215 219 224 220 216 229 226 226 219 220 224 222
227 10 298 202 126 35 337 60 273 179 258 246 243 223 324 338 331 337 330 314 312 315 313 312 313 311 312 302 295 288 276 266 259 245 261 200 208 212 220 227 229 221 217 220 234 227 221 222 234
13 19 51 73 94 336 233 137 273 207 213 210 115 81 339 335 337 320 303 308 312 316 319 316 311 311 312 303 294 281 273 267 257 251 251 218 216 226 223 230 228 223 220 226 229 233 230 227 228
60 60 333 354 323 226 192 213 255 245 223 199 254 318 324 336 319 309 312 316 320 323 323 321 318 314 315 309 295 279 268 260 250 240 240 241 226 233 239 230 229 233 227 228 228 225 227 231 232
162 147 151 250 270 277 236 237 253 231 290 273 281 313 329 317 309 307 313 320 320 322 323 322 321 319 317 313 299 281 266 251 237 236 234 237 236 238 236 235 231 222 229 224 221 221 224 226 230
243 89 150 91 97 315 242 279 290 309 299 289 284 319 322 300 304 305 315 320 323 327 328 325 322 321 319 317 308 287 262 244 226 228 234 233 235 235 235 239 232 216 215 219 219 217 216 221 227
111 164 60 13 356 304 286 283 243 285 276 280 292 309 289 293 300 313 319 323 328 330 331 332 328 329 325 325 321 294 256 232 216 227 232 236 242 237 231 226 219 223 216 209 206 211 218 217 222
71 95 50 121 138 186 296 270 222 208 211 247 279 290 284 303 314 320 324 328 334 333 341 341 338 339 336 339 344 319 248 200 204 225 225 222 214 249 241 215 213 217 204 199 192 188 189 197 212
165 179 152 125 260 231 154 272 218 212 211 233 287 282 304 309 316 321 332 338 341 348 354 358 357 359 359 2 17 70 128 143 180 194 187 180 216 213 205 199 195 193 182 184 184 181 181 182 191